COSMOS 397 DEB *, 5529

Orbit data source: Space-Track

COSMOS 397 DEB *, 5529 is space debris in LEO originally from a launch on Thu, 25 Feb 1971 UTC launched from the Tyuratam Missile And Space Complex (TTMTR). Debris objects in space refer to the collection of defunct objects orbiting the Earth. Examples of debris include non-operational satellites, rocket bodies, and fragments generated from explosions, collisions, or faulty payload assembly.

Loading next visibility...
Identifier
5529, 1971-015BT
Orbit
LEO
Country
Flag of CISCIS
Related business
Manufacturer
Unknown
Mission
Spacecraft
Bus & Motor
Unknown
Mass
Unknown
Launch date (UTC)
1971-02-25 (55 years ago)
Launch vehicle
Unknown
Launch site
Tyuratam Missile And Space Complex (TTMTR)
Object type
Payload
Rocket body
Debris
Shape & HBR
Unknown shape, 0.1 m
Radar Cross Section
Small (<0.1 m²)

Expand to show TLE details & history
Last TLE update: 2 days ago

TLE from 2 days ago
0 COSMOS 397 DEB *
1 05529U 71015BT  25348.79532608  .00002774  00000-0  86137-3 0  9995
2 05529  66.8407 132.3381 0055451 236.5962 122.9832 14.41622116832769
Epoch: 2025-12-14T19:05Z
TLE epoch observation values (Epoch: 2025-12-14T19:05:16.173Z)
Latitude
-0.00002°
Longitude
122.31759°
Altitude
776.957 km
Speed
7.455 km/s
True Right ascension
08h 49m 21s
True Declination
0° 00' 00"
Sunlit
Object was in full shadow at epoch
Visualization orbit readout
Latitude
Unknown
Longitude
Unknown
Altitude
Unknown
Speed
Unknown
Apparent Right ascension
Unknown
Apparent Declination
Unknown
Sunlit
N/A
Visualization observer readout
Local Sidereal Time
08:35:25
Azimuth
Unknown
Elevation
Unknown
Doppler factor
Unknown
Orbital elements
Apogee altitude
791.028 km
Perigee altitude
711.959 km
Semi-major axis
7,129.631 km
Eccentricity
0.00555
Inclination
66.8407°
RAAN
132.3381°
Arg. of periapsis
236.5962°
True anomaly
123.5142°
Mean anomaly
122.9832°
Eccentric anomaly
123.2489°
Mean motion
3.60531 °/min
Orbital period
99.85 mins
BSTAR
0.00086137
Loading maneuver chart data...
Computing Atmospheric mass density...

Documentation

Showing up to 5 results
|